Погода в Бель-Омбре

Маврикий     20°30′12″S   57°24′03″E
темп.,
°C
ветер,
м/с
пор.,
м/с
влажн.,
%
обл.,
%
осадки,
мм/ч
давл.,
гПа
погр.,
м
27 ноября, сб
сб2701:00+24всв347159 0.0 1015473
04:00+23всв34752 0.0 1014366
07:00+24всв45650 0.0 1015599
10:00+28в23450 0.0 1015989
13:00+28ю235466 0.0 10141277
16:00+25юз116584 0.1 1014766
19:00+25ю116697 0.1 1015817
22:00+25всв127166 0.1 1016596
28 ноября, вс
вс2801:00+24св227337 0.1 1015409
04:00+23св23785 0.1 1015284
07:00+24св34700 0.0 1016564
10:00+28вюв33531 0.0 10161158
13:00+27юв335643 0.0 10151188
16:00+26юв225739 0.0 1014966
19:00+25вюв33623 0.0 1015635
22:00+24в33670 0.0 1016501
29 ноября, пн
пн2901:00+23всв23690 0.0 1015443
04:00+23всв34710 0.0 1015404
07:00+24всв34640 0.0 1016698
10:00+27вюв44490 0.0 10161077
13:00+28юв55460 0.0 10141164
16:00+27юв54480 0.0 10141143
19:00+25в44580 0.0 1015784
22:00+24вюв34630 0.0 1017650
30 ноября, вт
вт3001:00+24вюв34665 0.0 1015507
04:00+23в34715 0.0 1015461
07:00+24в45695 0.0 1016773
10:00+27вюв55605 0.0 10161068
13:00+28юв65555 0.0 10151204
16:00+27юв66600 0.0 10141025
19:00+25вюв567530 0.0 1016829
22:00+25вюв567655 0.1 1017863
1 декабря, ср
ср101:00+24вюв467620 0.1 1016802
04:00+24вюв567762 0.3 1015843
07:00+25вюв567448 0.1 1017918
10:00+27вюв66644 0.1 10161084
13:00+27юв676844 0.1 10151112
16:00+26юв787457 0.8 1014959
19:00+25юв698159 0.4 1016807
22:00+25вюв698259 0.8 1016806